Vertical_Velocity
-5 -3 -2 -3 1 -2 -3 3 -1 20 2 -11 -3 1 20 18 3 19 -2 -1 2 1 -1 3 2 0 -1 2 0 -1 -2 1 -0 -1 -2 -1 -1 -0
-2 -2 -4 -3 -2 0 -3 2 0 14 7 3 3 3 8 5 18 11 5 4 2 -0 -1 2 0 2 -1 3 -0 1 -2 -2 1 -2 -1 -1 -1 -1
-2 -3 -3 -2 -3 -1 -1 0 1 16 6 8 7 14 11 2 8 13 20 -3 2 -2 0 1 1 1 0 2 1 1 0 0 0 -2 -2 -0 -0 -1
-3 -2 -1 -3 -4 -1 -3 -0 -3 7 13 9 16 14 15 -1 -4 11 4 -3 4 -4 -0 -0 1 -1 2 1 1 0 -0 1 -0 0 -1 1 -1 -2
-3 -1 -1 -3 -0 0 -5 -0 -2 -8 3 13 22 17 9 8 9 14 10 7 4 4 4 4 2 2 -0 0 1 -1 -1 1 1 -1 -1 -1 1 -1
-5 -2 -2 -1 -1 4 -0 -1 -0 1 5 11 14 29 15 6 19 -2 2 -3 -1 1 3 4 2 3 -2 -3 2 2 -3 -0 2 -1 -3 0 -0 1
-6 -1 -1 -4 0 0 3 -2 0 -7 3 -1 8 21 22 27 11 6 -3 9 7 4 4 -4 -10 1 -6 -3 -1 -1 0 1 1 -1 -1 0 -2 0
-4 -3 -1 -4 -1 -2 -0 -2 2 4 7 -6 5 12 9 16 17 6 6 -0 -7 -1 2 -1 -1 2 1 -0 3 -3 1 2 0 1 0 -2 2 -0
-0 -0 -1 0 -4 0 -0 3 -5 3 -3 11 -0 15 5 17 15 26 12 1 1 1 3 -2 -1 0 4 0 3 2 1 3 -0 1 3 -2 2 -1
2 2 3 0 1 1 -0 3 -0 0 2 -7 8 4 8 12 19 15 16 -1 12 13 6 -4 5 1 6 4 2 0 -0 -0 1 2 1 -3 -0 -3
-1 5 1 3 3 1 1 5 6 -6 1 -8 16 4 -1 3 18 12 16 12 -1 9 5 -0 4 4 3 3 2 -1 0 -3 2 -1 1 -2 -2 -4
1 4 1 4 1 1 1 0 2 5 1 -6 -5 3 -8 4 7 8 21 11 7 4 3 6 3 3 -5 -5 -4 -1 -2 -4 3 1 -2 -0 -4 1
1 2 1 1 2 -0 0 1 4 2 3 1 -9 1 4 4 -3 3 10 15 15 7 -2 -2 5 -0 2 15 10 -2 -4 -0 2 5 -4 2 -4 2
3 2 1 1 1 2 1 5 6 -3 -1 2 -5 -2 11 6 7 5 6 12 11 3 6 -2 -3 4 -5 9 -0 0 2 1 -1 6 -2 -0 -3 -1
4 3 1 -0 -0 1 -1 3 4 0 6 -3 1 -8 -4 2 3 5 7 -1 10 3 4 2 5 5 -1 10 8 5 -1 5 3 -1 5 4 -1 -1
4 2 0 1 -2 1 -3 1 5 -3 0 3 7 3 -7 -1 10 3 1 -1 9 3 6 -0 5 -3 3 -2 7 6 3 -2 6 0 4 -5 -1 2
2 2 0 3 1 -1 -4 1 3 -1 2 4 -2 3 5 -4 -5 -6 7 9 4 3 4 2 4 6 5 2 -1 1 1 -3 4 -2 -9 5 -1 -3
2 3 2 1 1 1 -1 1 -3 0 4 1 3 5 1 -1 -4 3 2 8 0 3 5 6 6 2 -2 2 1 -1 -3 6 -3 -1 -2 -4 -3 1
3 3 3 4 3 2 2 3 4 0 -2 2 -1 4 3 -1 -2 -10 7 12 10 1 3 5 3 4 -4 3 2 2 2 -2 6 -5 1 2 8 4
4 3 3 2 0 2 2 4 4 2 4 2 0 5 4 -1 -4 5 -8 -9 5 2 7 5 -4 -5 -4 10 8 8 8 8 6 5 -2 4 -3 -5
-0 -1 0 -0 1 2 -2 0 4 2 5 6 6 0 -3 -2 4 -1 -2 1 -11 -5 -6 8 13 6 11 3 -8 4 2 4 1 6 11 3 -4 -8
-0 -1 2 -0 -0 -1 -2 -1 -2 1 3 -0 -3 -0 9 -5 1 -2 -1 -2 -1 3 -2 -3 14 3 -3 -4 2 2 8 1 11 4 6 0 -3 1
-1 -1 -0 -1 -1 -0 -1 -3 -1 -3 -4 4 4 6 4 3 -1 -1 5 -3 -2 4 1 -4 -10 -4 2 1 -2 -1 6 9 11 4 2 -4 -1 7
Height
5556 5551 5550 5551 5554 5559 5567 5571 5583 5592 5605 5620 5637 5648 5660 5670 5682 5692 5703 5715 5725 5734 5744 5752 5760 5767 5775 5780 5785 5791 5795 5798 5801 5804 5807 5808 5809 5808
5544 5540 5539 5540 5543 5549 5555 5560 5570 5580 5594 5610 5624 5636 5647 5659 5673 5683 5694 5704 5714 5725 5734 5744 5751 5759 5766 5772 5777 5783 5788 5792 5795 5799 5802 5804 5805 5805
5531 5529 5527 5528 5532 5537 5544 5549 5556 5568 5584 5600 5611 5626 5635 5645 5656 5670 5683 5691 5701 5715 5724 5734 5742 5750 5758 5765 5770 5775 5780 5786 5789 5793 5796 5799 5801 5801
5517 5517 5515 5516 5520 5525 5532 5539 5545 5555 5570 5586 5598 5611 5624 5632 5644 5658 5670 5681 5693 5703 5714 5723 5733 5741 5750 5757 5763 5767 5773 5778 5783 5787 5790 5794 5797 5798
5501 5502 5502 5503 5508 5512 5518 5526 5534 5546 5556 5572 5584 5598 5608 5621 5636 5647 5660 5671 5682 5693 5703 5713 5723 5731 5741 5748 5754 5760 5765 5771 5775 5780 5784 5789 5792 5794
5485 5486 5487 5489 5493 5499 5505 5512 5520 5528 5543 5561 5573 5585 5594 5607 5623 5632 5645 5658 5670 5681 5692 5703 5712 5722 5731 5738 5744 5751 5757 5763 5768 5773 5777 5783 5787 5789
5466 5468 5470 5473 5478 5485 5493 5500 5508 5518 5528 5546 5559 5573 5583 5597 5608 5621 5634 5648 5658 5670 5681 5691 5701 5710 5718 5726 5734 5742 5750 5756 5761 5766 5770 5776 5780 5783
5445 5449 5452 5455 5461 5468 5478 5487 5494 5506 5515 5529 5545 5561 5571 5582 5597 5610 5623 5634 5647 5656 5667 5679 5691 5701 5711 5720 5729 5736 5743 5749 5754 5759 5763 5769 5773 5777
5419 5425 5432 5436 5443 5451 5461 5471 5481 5491 5501 5517 5529 5547 5560 5570 5585 5598 5610 5624 5636 5649 5657 5668 5680 5692 5701 5712 5719 5726 5734 5741 5746 5751 5755 5760 5765 5770
5392 5399 5409 5416 5424 5433 5445 5456 5465 5476 5489 5502 5518 5532 5546 5557 5570 5585 5598 5610 5624 5637 5649 5659 5670 5682 5692 5701 5707 5715 5724 5732 5738 5742 5747 5752 5758 5763
5366 5375 5385 5396 5405 5415 5428 5440 5451 5462 5473 5487 5503 5517 5531 5545 5558 5570 5584 5595 5608 5623 5635 5648 5658 5669 5681 5689 5697 5704 5712 5720 5729 5733 5738 5744 5750 5756
5342 5353 5363 5376 5386 5397 5411 5424 5436 5447 5457 5470 5488 5503 5516 5531 5543 5558 5571 5583 5595 5608 5622 5634 5646 5656 5662 5673 5683 5691 5700 5708 5718 5723 5729 5735 5743 5750
5321 5333 5345 5356 5369 5382 5395 5408 5421 5430 5444 5456 5470 5485 5503 5517 5528 5545 5556 5570 5582 5594 5606 5619 5632 5644 5654 5668 5675 5681 5690 5699 5707 5714 5720 5727 5736 5741
5304 5316 5328 5339 5353 5366 5380 5394 5406 5417 5429 5443 5456 5471 5486 5502 5517 5531 5543 5557 5568 5579 5591 5605 5617 5631 5643 5654 5662 5669 5677 5687 5695 5704 5711 5718 5726 5732
5289 5301 5312 5323 5338 5352 5366 5380 5392 5405 5417 5431 5445 5458 5471 5486 5502 5516 5531 5542 5556 5566 5578 5592 5606 5618 5631 5642 5653 5661 5669 5675 5685 5695 5701 5709 5719 5724
5276 5288 5299 5311 5325 5340 5355 5368 5381 5395 5407 5419 5432 5445 5457 5471 5488 5502 5516 5530 5543 5555 5567 5579 5591 5604 5617 5628 5638 5648 5654 5664 5673 5684 5693 5697 5704 5712
5266 5278 5290 5302 5315 5328 5345 5359 5371 5382 5392 5405 5420 5432 5445 5455 5469 5487 5504 5514 5529 5543 5555 5566 5579 5590 5602 5613 5624 5634 5642 5652 5661 5669 5677 5685 5693 5700
5259 5271 5282 5294 5307 5319 5333 5347 5362 5373 5383 5394 5407 5420 5433 5444 5457 5474 5491 5503 5517 5529 5542 5553 5563 5575 5586 5598 5611 5622 5632 5640 5650 5656 5665 5672 5681 5690
5256 5266 5276 5288 5301 5313 5326 5338 5351 5364 5374 5383 5397 5410 5423 5434 5447 5459 5475 5488 5503 5514 5526 5539 5549 5560 5572 5584 5597 5608 5619 5628 5636 5644 5653 5662 5670 5679
5252 5262 5272 5282 5294 5305 5317 5329 5342 5354 5365 5376 5386 5397 5410 5422 5434 5447 5460 5473 5485 5498 5510 5523 5535 5549 5561 5571 5584 5595 5603 5614 5625 5633 5641 5650 5660 5664
5249 5258 5268 5278 5289 5300 5311 5322 5333 5346 5356 5367 5378 5388 5400 5412 5422 5434 5446 5457 5468 5482 5496 5511 5524 5533 5545 5554 5566 5577 5589 5601 5613 5622 5630 5637 5646 5653
5248 5256 5265 5275 5285 5295 5305 5316 5328 5338 5349 5360 5370 5380 5390 5400 5411 5421 5432 5442 5456 5467 5480 5492 5504 5515 5527 5537 5551 5563 5575 5587 5596 5605 5614 5622 5631 5640
5247 5254 5262 5271 5281 5291 5300 5310 5319 5331 5342 5351 5360 5370 5379 5390 5401 5409 5420 5427 5439 5450 5461 5474 5485 5498 5510 5521 5533 5545 5558 5570 5579 5587 5597 5606 5615 5624